Tracking 18852 objects as of 23-Nov-2017
HD Live streaming from Space Station
objects crossing your sky now

ATLAS 5 CENTAUR R/B

Track ATLAS 5 CENTAUR R/B now!
10-day predictions


NORAD ID: 40978
Int'l Code: 2015-058Q
Perigee: 510.6 km
Apogee: 759.3 km
Inclination: 64.8 °
Period: 97.3 minutes
Semi major axis: 7005 km
RCS: Unknown
Launch date: October 8, 2015
Source: United States (US)
Launch site: AIR FORCE WESTERN TEST RANGE (AFWTR)

Note: This is a ROCKET BODY
aabbcc
Your satellite tracking list
Your tracking list is empty




NASA's NSSDC Master Catalog

Two Line Element Set (TLE):
1 40978U 15058Q   17323.18226368 0.00000450  00000-0  44611-4 0    01
2 40978  64.7757  90.9201 0177504  29.6148 330.3852 14.80466813    06
Source of the keplerian elements: McCants